Regional Weather Roundup
Issued by NWS

Home | Current Version | Previous Version | Graphics & Text | Print | Product List | Glossary On
Versions: 1 2 3 4 5 6 7 8 9 10 11 12 13 14 15 16 17 18 19 20 21 22 23 24 25 26 27
000
ASUS45 KTFX 230010
RWRMT
MONTANA REGIONAL WEATHER ROUNDUP
NATIONAL WEATHER SERVICE GREAT FALLS MT
600 PM MDT SUN APR 22 2018

NOTE: "FAIR" INDICATES FEW OR NO CLOUDS BELOW 12000 FEET WITH NO
SIGNIFICANT WEATHER AND/OR OBSTRUCTIONS TO VISIBILITY.

MTZ001>007-043-230100-
WEST OF THE DIVIDE

CITY           SKY/WX    TMP DP  RH WIND       PRES   REMARKS
KALISPELL      FAIR      55  20  25 S8        30.14S
MISSOULA       FAIR      58  22  24 N18G24    30.09S
BUTTE          CLOUDY    54  24  31 NW12      30.07R
MULLAN PASS    FAIR      42  18  37 VRB3      30.15S
ANACONDA         N/A     52  21  30 N12       30.08R
DEER LODGE       N/A     54  21  28 MISG      30.10R
HAMILTON         N/A     57  21  24 MISG      30.07S
PLAINS           N/A     59  22  24 NW5       30.13S
RONAN            N/A     55  19  24 NE9G15    30.15S
$$

MTZ008-052>055-230100-
SOUTHWEST MONTANA

CITY           SKY/WX    TMP DP  RH WIND       PRES   REMARKS
BOZEMAN        CLOUDY    59  31  34 N12       30.01S
DILLON         CLOUDY    56  33  42 NW13      29.99R
ENNIS          CLOUDY    54  32  43 NW15      30.07R
W YELLOWSTONE  PTSUNNY   54  27  35 S5G12     30.02F
THREE FORKS      N/A     60  26  27 N13       30.02R
$$

MTZ009-010-012-014-046-048-049-054-230100-
EAST SLOPES AND CENTRAL MONTANA

CITY           SKY/WX    TMP DP  RH WIND       PRES   REMARKS
CUT BANK       FAIR      52  12  20 NW8       30.15R
GREAT FALLS    FAIR      57  17  21 N10G21    30.10S
HELENA         FAIR      60  23  24 N14       30.06S
CHOTEAU          N/A     55  16  21 NE8       30.13S
WHITE SULPHUR    N/A     55  23  28 N15       30.04F
$$

MTZ011-013-016-021-045-047-050-051-230100-
NORTH CENTRAL MONTANA

CITY           SKY/WX    TMP DP  RH WIND       PRES   REMARKS
HAVRE          FAIR      60  24  25 NW8       30.12R
LEWISTOWN      FAIR      58  26  29 N10       30.09S
N BAR RANCH    CLOUDY    55  27  33 NE12G20   30.11R
CHINOOK          N/A     57  23  26 NW7       30.12R
$$

MTZ017>020-022>027-061-062-230100-
NORTHEAST MONTANA

CITY           SKY/WX    TMP DP  RH WIND       PRES   REMARKS
GLASGOW        FAIR      64  25  22 NW10      30.09R
GLENDIVE       FAIR      64  24  21 N9        30.09S
JORDAN           N/A     64  26  23 CALM      30.08S
MALTA          SUNNY     59  30  33 N12       30.09R
SIDNEY         FAIR      64  23  21 NW9       30.08S
WOLF POINT     FAIR      63  27  25 NW12      30.09S
PLENTYWOOD       N/A     61  23  23 W16       30.08R
POPLAR           N/A     63  25  23 NW12      30.09R
SCOBEY           N/A     60  22  23 W15       30.07S
$$

MTZ028>42-056>058-230100-
SOUTHCENTRAL AND SOUTHEAST MONTANA

CITY           SKY/WX    TMP DP  RH WIND       PRES   REMARKS
BAKER          FAIR      65  24  21 NW5       30.09S
BILLINGS       FAIR      64  29  26 NE14      30.03F
LIVINGSTON     CLOUDY    62  31  31 E10       30.01S
MILES CITY     FAIR      64  26  23 CALM      30.07S
BIG TIMBER     PTSUNNY   61  28  29 E8        30.04S
EKALAKA          N/A     64  24  22 N7        30.06S
FORSYTH          N/A     64  27  24 N7        30.06F
LAUREL           N/A     64  28  25 NE15      30.03F
$$

REGIONAL REPORTS...DAKOTAS

CITY           SKY/WX    TMP DP  RH WIND       PRES   REMARKS
WILLISTON      FAIR      66  23  19 W14       30.07F
MINOT          FAIR      65  28  24 W8        30.07F
DICKINSON      FAIR      65  20  17 NW5       30.07R
BEACH          FAIR      63  18  17 VRB5      30.12S
CROSBY         PTSUNNY   61  28  29 NW7       30.07S
TIOGA          FAIR      61  27  27 W13G18    30.09S
BISMARCK       CLOUDY    66  38  35 SE14      30.06S
GRAND FORKS    FAIR      61  46  57 S15       30.11F
FARGO          FAIR      63  37  38 S16G26    30.14F
BUFFALO SD       N/A     68  33  27 N9        30.00
RAPID CITY     FAIR      64  37  36 E6        30.06S
$$

REGIONAL REPORTS...WYOMING/IDAHO/WASHINGTON

CITY           SKY/WX    TMP DP  RH WIND       PRES   REMARKS
GILLETTE       CLOUDY    67  38  34 E9        30.01F
SHERIDAN       FAIR      69  39  33 NE9       30.01S
BUFFALO WY     CLOUDY    68  33  27 NE12      30.03S
CODY           FAIR      65  30  27 NE7       30.02S
YELLOWSTONE LA   N/A     45  27  49 SE6       30.13F
IDAHO FALLS    FAIR      70  28  21 SW16G22   29.96F
SALMON         FAIR      63  34  33 N15       29.95S
BOISE          FAIR      63  28  26 NW22G29   30.02S
SPOKANE        PTSUNNY   55  22  27 VRB3      30.20F
$$

REGIONAL REPORTS...ALBERTA

CITY           SKY/WX    TMP DP  RH WIND       PRES   REMARKS
CALGARY        PTSUNNY   46  21  36 SE13      30.18R
CARDSTON         N/A     50  19  29 NE6         N/A
EDMONTON       SUNNY     50  25  37 NW16G23   30.15R
FORT MCMURRAY  CLOUDY    45  34  65 NW21G32   30.03R
HIGH LEVEL     PTSUNNY   46  27  46 NW7       30.12R
LETHBRIDGE     PTSUNNY   52  16  24 N7        30.18S
LLOYDMINSTER   PTSUNNY   45  34  65 NW20G32   30.07R
MEDICINE HAT   PTSUNNY   54  19  26 NW18      30.16R
MILK RIVER       N/A     54  23  30 N15         N/A
ONEFOUR          N/A     54  19  26 NW14G21     N/A
PEACE RIVER    MOSUNNY   46  27  46 W14G22    30.19R
PINCHER CREEK  PTSUNNY   46  18  31 NE6       30.18R
WATERTON GATE    N/A     48  14  25 NE2         N/A
$$

REGIONAL REPORTS...SASKATCHEWAN

CITY           SKY/WX    TMP DP  RH WIND       PRES   REMARKS
CORONACH         N/A     61  18  18 W14G21      N/A
CYPRESS HILLS    N/A     48  14  25 NW7         N/A
ESTEVAN        MOSUNNY   63  25  23 W16       30.05F
MOOSE JAW        N/A     57  18  21 NW23G30     N/A
PRINCE ALBERT  PTSUNNY   50  36  57 NW21G32   29.95R
REGINA         MOSUNNY   57  21  24 W26G35    30.07S
ROCKGLEN         N/A     57  19  23 NW13G20     N/A
SASKATOON      PTSUNNY   48  34  57 W22G29    30.06R
SWIFT CURRENT  PTSUNNY   54  21  28 W17G23    30.10R
VAL MARIE        N/A     57  23  26 NW15        N/A
$$




USA.gov is the U.S. government's official web portal to all federal, state and local government web resources and services.